19 December 2014 Space
GT Aviation logo and link to the homepage
GT Aviation logo and link to the homepage Space
Space

GT Aviation UK - Airfield Weather Information

 

Weather information for EGHH


23 minutes ago, at 01:50 UTC, the wind was blowing at a speed of 10.8 meters per second (24.2 miles per hour), with gusts to 15.9 meters per second (35.7 miles per hour), from West/Southwest in EGHH. The temperature was 12 degrees Celsius (54 degrees Fahrenheit), and the pressure was 1,011 hPa (29.85 inHg). The relative humidity was 93.6%. There were overcast at a height of 244 meter (800 feet). The visibility was >11.3 kilometers (>7 miles).

The METAR this information has been retrieved from is: EGHH 190150Z 24021G31KT 9999 OVC008 12/11 Q1011

Search again?
Enter ICAO code: and show the report in
Don't know the ICAO code of the airport you want weather for?

To see a graphical view of the weather for EGHH, click here to visit SkyLinkWeather

 



GT Aviation UK
PO Box 15, WEYMOUTH DT4 8DS, UK
Email jane@gtaviation.co.uk Web www.gtaviation.co.uk

Use of this website constitutes acceptance of our User Agreement

TYNT INSIGHT technology is in use on this website to monitor text and pictures being copied from it. A record is kept only of the content copied.